| time (UTC) | temp F | wind direction | speed MPH | gust MPH | rain 1hr in | rain 24hr in | rain mn in | humidity % | barometer mb |
| 20260831174705 | 62 | 178 | 3.0 | 8.0 | 0.00 | 0.00 | 0.00 | 80 | 1016.0 |
| 20260831174204 | 62 | 117 | 4.0 | 8.0 | 0.00 | 0.00 | 0.00 | 80 | 1016.0 |
| 20260831173704 | 62 | 115 | 4.0 | 8.0 | 0.00 | 0.00 | 0.00 | 80 | 1015.9 |
| 20260831173204 | 62 | 190 | 3.0 | 7.0 | 0.00 | 0.00 | 0.00 | 80 | 1015.9 |
| 20260831172705 | 62 | 180 | 2.0 | 6.0 | 0.00 | 0.00 | 0.00 | 80 | 1015.9 |
| 20260831171705 | 61 | 212 | 4.0 | 7.0 | 0.00 | 0.00 | 0.00 | 80 | 1016.0 |
| 20260831171204 | 61 | 234 | 4.0 | 7.0 | 0.00 | 0.00 | 0.00 | 80 | 1015.9 |
| 20260831170704 | 61 | 202 | 4.0 | 7.0 | 0.00 | 0.00 | 0.00 | 81 | 1015.9 |
| 20260831165204 | 61 | 154 | 3.0 | 8.0 | 0.00 | 0.00 | 0.00 | 81 | 1015.7 |
| 20260831164704 | 61 | 217 | 3.0 | 8.0 | 0.00 | 0.00 | 0.00 | 80 | 1015.5 |
| 20260831164205 | 61 | 178 | 3.0 | 7.0 | 0.00 | 0.00 | 0.00 | 80 | 1015.6 |
| 20260831163705 | 60 | 155 | 4.0 | 7.0 | 0.00 | 0.00 | 0.00 | 81 | 1015.6 |
| 20260831163205 | 60 | 148 | 3.0 | 6.0 | 0.00 | 0.00 | 0.00 | 81 | 1015.6 |
| 20260831162705 | 60 | 202 | 2.0 | 7.0 | 0.00 | 0.00 | 0.00 | 81 | 1015.5 |
| 20260831162205 | 60 | 232 | 3.0 | 7.0 | 0.00 | 0.00 | 0.00 | 82 | 1015.5 |
| 20260831161704 | 60 | 303 | 3.0 | 7.0 | 0.00 | 0.00 | 0.00 | 82 | 1015.5 |
| 20260831161204 | 59 | 348 | 1.0 | 4.0 | 0.00 | 0.00 | 0.00 | 83 | 1015.5 |
| 20260831160704 | 59 | 330 | 1.0 | 4.0 | 0.00 | 0.00 | 0.00 | 84 | 1015.5 |
| 20260831160205 | 59 | 284 | 1.0 | 6.0 | 0.00 | 0.00 | 0.00 | 85 | 1015.4 |
| 20260831155705 | 59 | 0 | 2.0 | 6.0 | 0.00 | 0.00 | 0.00 | 85 | 1015.5 |
| 20260831154704 | 58 | 295 | 0.0 | 0.0 | 0.00 | 0.00 | 0.00 | 86 | 1015.4 |
| 20260831154205 | 58 | 9 | 0.0 | 0.0 | 0.00 | 0.00 | 0.00 | 87 | 1015.4 |
| 20260831153704 | 58 | 59 | 0.0 | 0.0 | 0.00 | 0.00 | 0.00 | 88 | 1015.3 |
| 20260831153204 | 58 | 54 | 0.0 | 0.0 | 0.00 | 0.00 | 0.00 | 88 | 1015.3 |
| 20260831152705 | 58 | 313 | 0.0 | 0.0 | 0.00 | 0.00 | 0.00 | 89 | 1015.3 |
| 20260831152204 | 57 | 50 | 0.0 | 0.0 | 0.00 | 0.00 | 0.00 | 89 | 1015.3 |
| 20260831151705 | 57 | 11 | 0.0 | 0.0 | 0.00 | 0.00 | 0.00 | 89 | 1015.3 |
| 20260831150705 | 57 | 11 | 0.0 | 0.0 | 0.00 | 0.00 | 0.00 | 90 | 1015.3 |
| 20260831150204 | 57 | 5 | 0.0 | 0.0 | 0.00 | 0.00 | 0.00 | 90 | 1015.2 |
| 20260831145704 | 57 | 355 | 0.0 | 0.0 | 0.00 | 0.00 | 0.00 | 90 | 1015.2 |
| 20260831145204 | 56 | 272 | 0.0 | 0.0 | 0.00 | 0.00 | 0.00 | 91 | 1015.1 |
| 20260831144705 | 56 | 272 | 0.0 | 0.0 | 0.00 | 0.00 | 0.00 | 91 | 1015.0 |
| 20260831144205 | 56 | 272 | 0.0 | 0.0 | 0.00 | 0.00 | 0.00 | 91 | 1014.9 |
| 20260831143704 | 56 | 272 | 0.0 | 0.0 | 0.00 | 0.00 | 0.00 | 91 | 1014.9 |
| 20260831143204 | 56 | 272 | 0.0 | 0.0 | 0.00 | 0.00 | 0.00 | 91 | 1014.8 |
| 20260831142704 | 56 | 272 | 0.0 | 5.0 | 0.00 | 0.00 | 0.00 | 91 | 1014.8 |
| 20260831141704 | 56 | 294 | 1.0 | 5.0 | 0.00 | 0.00 | 0.00 | 91 | 1014.8 |
| 20260831141204 | 56 | 331 | 1.0 | 4.0 | 0.00 | 0.00 | 0.00 | 92 | 1014.7 |
| 20260831140705 | 56 | 296 | 1.0 | 5.0 | 0.00 | 0.00 | 0.00 | 92 | 1014.6 |
| 20260831140204 | 56 | 294 | 2.0 | 5.0 | 0.00 | 0.00 | 0.00 | 92 | 1014.5 |
| 20260831135705 | 56 | 281 | 2.0 | 5.0 | 0.00 | 0.00 | 0.00 | 92 | 1014.5 |
| 20260831134704 | 56 | 317 | 1.0 | 5.0 | 0.00 | 0.00 | 0.00 | 92 | 1014.4 |
| 20260831134205 | 56 | 306 | 1.0 | 4.0 | 0.00 | 0.00 | 0.00 | 92 | 1014.4 |
| 20260831133705 | 56 | 304 | 2.0 | 5.0 | 0.00 | 0.00 | 0.00 | 92 | 1014.3 |
| 20260831132704 | 56 | 336 | 2.0 | 5.0 | 0.00 | 0.00 | 0.00 | 92 | 1014.2 |
| 20260831132204 | 56 | 290 | 2.0 | 5.0 | 0.00 | 0.00 | 0.00 | 92 | 1014.2 |
| 20260831131705 | 56 | 285 | 1.0 | 5.0 | 0.00 | 0.00 | 0.00 | 92 | 1014.1 |
| 20260831131204 | 56 | 301 | 0.0 | 0.0 | 0.00 | 0.00 | 0.00 | 92 | 1014.1 |
| 20260831130704 | 56 | 283 | 0.0 | 0.0 | 0.00 | 0.00 | 0.00 | 92 | 1014.2 |
| 20260831130205 | 57 | 259 | 0.0 | 0.0 | 0.00 | 0.00 | 0.00 | 92 | 1014.2 |
| 20260831125704 | 56 | 263 | 0.0 | 0.0 | 0.00 | 0.00 | 0.00 | 92 | 1014.2 |
| 20260831125204 | 57 | 215 | 0.0 | 0.0 | 0.00 | 0.00 | 0.00 | 92 | 1014.1 |
| 20260831124704 | 56 | 215 | 0.0 | 0.0 | 0.00 | 0.00 | 0.00 | 92 | 1014.0 |
| 20260831124204 | 57 | 215 | 0.0 | 0.0 | 0.00 | 0.00 | 0.00 | 92 | 1014.1 |
| 20260831123204 | 57 | 215 | 0.0 | 0.0 | 0.00 | 0.00 | 0.00 | 92 | 1014.1 |
| 20260831122704 | 57 | 215 | 0.0 | 0.0 | 0.00 | 0.00 | 0.00 | 92 | 1014.0 |
| 20260831122204 | 57 | 215 | 0.0 | 0.0 | 0.00 | 0.00 | 0.00 | 92 | 1014.0 |
| 20260831121204 | 57 | 218 | 0.0 | 0.0 | 0.00 | 0.00 | 0.00 | 92 | 1014.1 |
| 20260831120704 | 57 | 223 | 0.0 | 0.0 | 0.00 | 0.00 | 0.00 | 92 | 1014.0 |
| 20260831115704 | 56 | 264 | 0.0 | 0.0 | 0.00 | 0.00 | 0.00 | 92 | 1014.1 |
| 20260831115204 | 56 | 309 | 0.0 | 0.0 | 0.00 | 0.00 | 0.00 | 91 | 1014.0 |
| 20260831114205 | 57 | 309 | 0.0 | 0.0 | 0.00 | 0.00 | 0.00 | 91 | 1013.9 |
| 20260831113704 | 57 | 285 | 0.0 | 0.0 | 0.00 | 0.00 | 0.00 | 91 | 1013.9 |
| 20260831112704 | 57 | 278 | 0.0 | 2.0 | 0.00 | 0.00 | 0.00 | 91 | 1013.9 |
| 20260831112205 | 57 | 154 | 0.0 | 3.0 | 0.00 | 0.00 | 0.00 | 91 | 1014.0 |
| 20260831111704 | 57 | 178 | 1.0 | 3.0 | 0.00 | 0.00 | 0.00 | 91 | 1013.9 |
| 20260831111204 | 57 | 246 | 1.0 | 3.0 | 0.00 | 0.00 | 0.00 | 91 | 1014.0 |
| 20260831110704 | 57 | 251 | 1.0 | 4.0 | 0.00 | 0.00 | 0.00 | 91 | 1014.0 |
| 20260831110204 | 57 | 205 | 1.0 | 4.0 | 0.00 | 0.00 | 0.00 | 91 | 1014.0 |
| 20260831105704 | 57 | 223 | 2.0 | 4.0 | 0.00 | 0.00 | 0.00 | 91 | 1014.0 |
| 20260831105204 | 57 | 196 | 1.0 | 3.0 | 0.00 | 0.00 | 0.00 | 91 | 1014.0 |
| 20260831104204 | 57 | 306 | 0.0 | 5.0 | 0.00 | 0.00 | 0.00 | 91 | 1014.0 |
| 20260831103704 | 57 | 306 | 2.0 | 5.0 | 0.00 | 0.00 | 0.00 | 91 | 1013.9 |
| 20260831102204 | 57 | 167 | 1.0 | 3.0 | 0.00 | 0.00 | 0.00 | 91 | 1014.0 |
| 20260831101705 | 57 | 180 | 0.0 | 4.0 | 0.00 | 0.00 | 0.00 | 91 | 1013.9 |
| 20260831100704 | 57 | 227 | 1.0 | 4.0 | 0.00 | 0.00 | 0.00 | 91 | 1013.8 |
| 20260831100204 | 57 | 211 | 1.0 | 2.0 | 0.00 | 0.00 | 0.00 | 91 | 1013.9 |
| 20260831095705 | 57 | 194 | 0.0 | 3.0 | 0.00 | 0.00 | 0.00 | 91 | 1013.9 |
| 20260831094704 | 57 | 279 | 1.0 | 3.0 | 0.00 | 0.00 | 0.00 | 91 | 1013.9 |
| 20260831094204 | 57 | 290 | 1.0 | 3.0 | 0.00 | 0.00 | 0.00 | 91 | 1013.9 |
| 20260831093704 | 57 | 211 | 1.0 | 3.0 | 0.00 | 0.00 | 0.00 | 91 | 1014.0 |
| 20260831093204 | 57 | 199 | 1.0 | 3.0 | 0.00 | 0.00 | 0.00 | 91 | 1014.0 |
| 20260831092704 | 57 | 257 | 1.0 | 3.0 | 0.00 | 0.00 | 0.00 | 91 | 1014.0 |
| 20260831092205 | 57 | 174 | 0.0 | 0.0 | 0.00 | 0.00 | 0.00 | 91 | 1014.0 |
| 20260831091704 | 57 | 204 | 0.0 | 3.0 | 0.00 | 0.00 | 0.00 | 91 | 1014.0 |
| 20260831091204 | 57 | 204 | 0.0 | 3.0 | 0.00 | 0.00 | 0.00 | 91 | 1014.0 |
| 20260831090205 | 57 | 274 | 0.0 | 3.0 | 0.00 | 0.00 | 0.00 | 91 | 1014.0 |
| 20260831085704 | 57 | 153 | 0.0 | 3.0 | 0.00 | 0.00 | 0.00 | 90 | 1014.0 |
| 20260831084204 | 57 | 122 | 1.0 | 6.0 | 0.00 | 0.00 | 0.00 | 90 | 1014.0 |
| 20260831083704 | 57 | 180 | 1.0 | 3.0 | 0.00 | 0.00 | 0.00 | 90 | 1014.1 |
| 20260831082704 | 58 | 201 | 0.0 | 0.0 | 0.00 | 0.00 | 0.00 | 90 | 1014.1 |
| 20260831082204 | 58 | 213 | 0.0 | 0.0 | 0.00 | 0.00 | 0.00 | 90 | 1014.1 |
| 20260831081705 | 58 | 213 | 0.0 | 0.0 | 0.00 | 0.00 | 0.00 | 90 | 1014.2 |
| 20260831081205 | 58 | 248 | 0.0 | 0.0 | 0.00 | 0.00 | 0.00 | 90 | 1014.1 |
| 20260831080204 | 58 | 167 | 0.0 | 0.0 | 0.00 | 0.00 | 0.00 | 90 | 1014.1 |
| 20260831075704 | 58 | 144 | 0.0 | 0.0 | 0.00 | 0.00 | 0.00 | 90 | 1014.2 |
| 20260831075204 | 58 | 144 | 0.0 | 0.0 | 0.00 | 0.00 | 0.00 | 90 | 1014.2 |
| 20260831074205 | 58 | 163 | 0.0 | 0.0 | 0.00 | 0.00 | 0.00 | 90 | 1014.1 |
| 20260831073704 | 58 | 128 | 0.0 | 1.0 | 0.00 | 0.00 | 0.00 | 90 | 1014.2 |
| 20260831072704 | 58 | 129 | 0.0 | 3.0 | 0.00 | 0.00 | 0.00 | 90 | 1014.2 |
| 20260831072204 | 58 | 130 | 0.0 | 4.0 | 0.00 | 0.00 | 0.00 | 90 | 1014.2 |
| 20260831071705 | 58 | 130 | 1.0 | 4.0 | 0.00 | 0.00 | 0.00 | 90 | 1014.2 |
| 20260831071204 | 58 | 171 | 1.0 | 4.0 | 0.00 | 0.00 | 0.00 | 90 | 1014.1 |
| 20260831070704 | 58 | 136 | 1.0 | 4.0 | 0.00 | 0.00 | 0.00 | 90 | 1014.1 |
| 20260831070204 | 58 | 125 | 1.0 | 4.0 | 0.00 | 0.00 | 0.00 | 90 | 1014.1 |
| 20260831065704 | 58 | 110 | 1.0 | 5.0 | 0.00 | 0.00 | 0.00 | 90 | 1014.1 |
| 20260831065204 | 58 | 64 | 1.0 | 5.0 | 0.00 | 0.00 | 0.00 | 90 | 1014.0 |
| 20260831064705 | 58 | 93 | 2.0 | 5.0 | 0.00 | 0.00 | 0.00 | 90 | 1014.0 |
| 20260831064204 | 58 | 129 | 2.0 | 7.0 | 0.00 | 0.00 | 0.00 | 90 | 1014.1 |
| 20260831063704 | 58 | 107 | 2.0 | 7.0 | 0.00 | 0.00 | 0.00 | 90 | 1014.1 |
| 20260831063205 | 58 | 102 | 3.0 | 6.0 | 0.00 | 0.00 | 0.00 | 90 | 1014.2 |
| 20260831062704 | 58 | 120 | 3.0 | 8.0 | 0.00 | 0.00 | 0.00 | 90 | 1014.1 |
| 20260831062204 | 58 | 119 | 3.0 | 8.0 | 0.00 | 0.00 | 0.00 | 90 | 1014.2 |
| 20260831061705 | 58 | 119 | 4.0 | 8.0 | 0.00 | 0.00 | 0.00 | 89 | 1014.1 |
| 20260831060704 | 58 | 109 | 3.0 | 11.0 | 0.00 | 0.00 | 0.00 | 90 | 1014.1 |
| 20260831060204 | 58 | 118 | 5.0 | 11.0 | 0.00 | 0.00 | 0.00 | 89 | 1014.2 |
| 20260831055705 | 58 | 96 | 6.0 | 10.0 | 0.00 | 0.00 | 0.00 | 90 | 1014.3 |
| 20260831055204 | 58 | 115 | 4.0 | 10.0 | 0.00 | 0.00 | 0.00 | 90 | 1014.2 |
| 20260831054204 | 58 | 109 | 4.0 | 9.0 | 0.00 | 0.00 | 0.00 | 90 | 1014.3 |
| 20260831053704 | 58 | 136 | 4.0 | 9.0 | 0.00 | 0.00 | 0.00 | 89 | 1014.4 |
| 20260831053204 | 58 | 105 | 3.0 | 9.0 | 0.00 | 0.00 | 0.00 | 89 | 1014.3 |
| 20260831052704 | 58 | 139 | 3.0 | 9.0 | 0.00 | 0.00 | 0.00 | 89 | 1014.3 |
| 20260831052204 | 58 | 111 | 3.0 | 9.0 | 0.00 | 0.00 | 0.00 | 89 | 1014.3 |
| 20260831051705 | 58 | 58 | 3.0 | 7.0 | 0.00 | 0.00 | 0.00 | 89 | 1014.3 |
| 20260831051204 | 58 | 150 | 2.0 | 8.0 | 0.00 | 0.00 | 0.00 | 89 | 1014.3 |
| 20260831050704 | 58 | 124 | 3.0 | 9.0 | 0.00 | 0.00 | 0.00 | 89 | 1014.3 |
| 20260831045704 | 58 | 124 | 4.0 | 9.0 | 0.00 | 0.00 | 0.00 | 89 | 1014.4 |
| 20260831045205 | 58 | 49 | 3.0 | 9.0 | 0.00 | 0.00 | 0.00 | 89 | 1014.4 |
| 20260831044704 | 58 | 142 | 3.0 | 8.0 | 0.00 | 0.00 | 0.00 | 89 | 1014.4 |
| 20260831044204 | 58 | 84 | 3.0 | 10.0 | 0.00 | 0.00 | 0.00 | 89 | 1014.4 |
| 20260831043704 | 58 | 78 | 4.0 | 10.0 | 0.00 | 0.00 | 0.00 | 89 | 1014.4 |
| 20260831043205 | 58 | 121 | 4.0 | 10.0 | 0.00 | 0.00 | 0.00 | 89 | 1014.4 |
| 20260831042704 | 58 | 115 | 4.0 | 9.0 | 0.00 | 0.00 | 0.00 | 89 | 1014.3 |
| 20260831042204 | 58 | 117 | 3.0 | 9.0 | 0.00 | 0.00 | 0.00 | 89 | 1014.3 |
| 20260831041204 | 58 | 120 | 4.0 | 11.0 | 0.00 | 0.00 | 0.00 | 89 | 1014.1 |
| 20260831040705 | 58 | 84 | 5.0 | 11.0 | 0.00 | 0.00 | 0.00 | 89 | 1014.1 |
| 20260831040205 | 59 | 101 | 4.0 | 9.0 | 0.00 | 0.00 | 0.00 | 88 | 1014.0 |
| 20260831035204 | 59 | 83 | 4.0 | 9.0 | 0.00 | 0.00 | 0.00 | 88 | 1013.9 |
| 20260831034206 | 60 | 135 | 4.0 | 9.0 | 0.00 | 0.00 | 0.00 | 87 | 1013.7 |
| 20260831033704 | 60 | 110 | 4.0 | 10.0 | 0.00 | 0.00 | 0.00 | 87 | 1013.6 |
| 20260831033204 | 60 | 88 | 5.0 | 10.0 | 0.00 | 0.00 | 0.00 | 87 | 1013.5 |
| 20260831032704 | 60 | 75 | 5.0 | 10.0 | 0.00 | 0.00 | 0.00 | 86 | 1013.4 |
| 20260831031705 | 60 | 63 | 5.0 | 11.0 | 0.00 | 0.00 | 0.00 | 85 | 1013.2 |
| 20260831031204 | 60 | 60 | 5.0 | 11.0 | 0.00 | 0.00 | 0.00 | 84 | 1013.2 |
| 20260831030205 | 61 | 37 | 5.0 | 10.0 | 0.00 | 0.00 | 0.00 | 82 | 1013.2 |
| 20260831025704 | 62 | 97 | 5.0 | 10.0 | 0.00 | 0.00 | 0.00 | 81 | 1013.1 |
| 20260831025204 | 62 | 59 | 5.0 | 12.0 | 0.00 | 0.00 | 0.00 | 80 | 1013.1 |
| 20260831024704 | 63 | 57 | 5.0 | 12.0 | 0.00 | 0.00 | 0.00 | 79 | 1013.1 |
| 20260831024204 | 63 | 69 | 5.0 | 10.0 | 0.00 | 0.00 | 0.00 | 78 | 1013.1 |
| 20260831023703 | 64 | 49 | 4.0 | 9.0 | 0.00 | 0.00 | 0.00 | 78 | 1013.1 |
| 20260831023204 | 64 | 84 | 4.0 | 10.0 | 0.00 | 0.00 | 0.00 | 77 | 1013.0 |
| 20260831022704 | 64 | 80 | 4.0 | 10.0 | 0.00 | 0.00 | 0.00 | 77 | 1013.0 |
| 20260831022204 | 65 | 57 | 4.0 | 10.0 | 0.00 | 0.00 | 0.00 | 76 | 1013.0 |
| 20260831021704 | 65 | 76 | 3.0 | 8.0 | 0.00 | 0.00 | 0.00 | 75 | 1012.9 |
| 20260831021205 | 65 | 61 | 4.0 | 7.0 | 0.00 | 0.00 | 0.00 | 74 | 1012.9 |
| 20260831020704 | 66 | 107 | 3.0 | 7.0 | 0.00 | 0.00 | 0.00 | 73 | 1013.0 |
| 20260831020204 | 66 | 54 | 2.0 | 7.0 | 0.00 | 0.00 | 0.00 | 73 | 1013.1 |
| 20260831015705 | 67 | 55 | 1.0 | 6.0 | 0.00 | 0.00 | 0.00 | 73 | 1012.9 |
| 20260831015205 | 67 | 161 | 2.0 | 6.0 | 0.00 | 0.00 | 0.00 | 73 | 1012.9 |
| 20260831013704 | 68 | 186 | 2.0 | 4.0 | 0.00 | 0.00 | 0.00 | 71 | 1012.9 |
| 20260831013204 | 68 | 165 | 2.0 | 6.0 | 0.00 | 0.00 | 0.00 | 71 | 1012.8 |
| 20260831012704 | 68 | 222 | 2.0 | 6.0 | 0.00 | 0.00 | 0.00 | 71 | 1012.8 |
| 20260831011705 | 68 | 246 | 4.0 | 8.0 | 0.00 | 0.00 | 0.00 | 71 | 1012.9 |
| 20260831011204 | 68 | 217 | 4.0 | 8.0 | 0.00 | 0.00 | 0.00 | 70 | 1013.0 |
| 20260831010204 | 69 | 220 | 4.0 | 7.0 | 0.00 | 0.00 | 0.00 | 70 | 1013.0 |
| 20260831005205 | 69 | 213 | 4.0 | 8.0 | 0.00 | 0.00 | 0.00 | 69 | 1013.0 |
| 20260831004705 | 69 | 234 | 5.0 | 8.0 | 0.00 | 0.00 | 0.00 | 69 | 1013.0 |
| 20260831004204 | 70 | 213 | 4.0 | 9.0 | 0.00 | 0.00 | 0.00 | 67 | 1013.0 |
| 20260831003704 | 70 | 206 | 4.0 | 9.0 | 0.00 | 0.00 | 0.00 | 68 | 1013.0 |
| 20260831003204 | 70 | 215 | 5.0 | 9.0 | 0.00 | 0.00 | 0.00 | 67 | 1012.9 |
| 20260831002705 | 71 | 218 | 4.0 | 8.0 | 0.00 | 0.00 | 0.00 | 66 | 1013.0 |
| 20260831002205 | 71 | 163 | 4.0 | 8.0 | 0.00 | 0.00 | 0.00 | 65 | 1013.0 |
| 20260831001704 | 71 | 213 | 4.0 | 8.0 | 0.00 | 0.00 | 0.00 | 65 | 1013.0 |
| 20260831001205 | 72 | 207 | 4.0 | 8.0 | 0.00 | 0.00 | 0.00 | 64 | 1013.1 |
| 20260831000704 | 72 | 209 | 4.0 | 7.0 | 0.00 | 0.00 | 0.00 | 64 | 1013.1 |
| 20260830235704 | 72 | 198 | 3.0 | 8.0 | 0.00 | 0.00 | 0.00 | 65 | 1013.2 |
| 20260830235205 | 71 | 186 | 4.0 | 8.0 | 0.00 | 0.00 | 0.00 | 66 | 1013.1 |
| 20260830234704 | 71 | 178 | 4.0 | 9.0 | 0.00 | 0.00 | 0.00 | 66 | 1013.2 |
| 20260830234205 | 72 | 207 | 4.0 | 9.0 | 0.00 | 0.00 | 0.00 | 66 | 1013.2 |
| 20260830233704 | 72 | 200 | 5.0 | 9.0 | 0.00 | 0.00 | 0.00 | 66 | 1013.2 |
| 20260830233204 | 72 | 202 | 5.0 | 9.0 | 0.00 | 0.00 | 0.00 | 65 | 1013.3 |
| 20260830232704 | 72 | 261 | 5.0 | 9.0 | 0.00 | 0.00 | 0.00 | 65 | 1013.3 |
| 20260830232204 | 72 | 205 | 4.0 | 9.0 | 0.00 | 0.00 | 0.00 | 65 | 1013.3 |
| 20260830231705 | 72 | 158 | 4.0 | 8.0 | 0.00 | 0.00 | 0.00 | 65 | 1013.4 |
| 20260830231204 | 72 | 209 | 4.0 | 8.0 | 0.00 | 0.00 | 0.00 | 66 | 1013.4 |
| 20260830230704 | 72 | 180 | 4.0 | 8.0 | 0.00 | 0.00 | 0.00 | 66 | 1013.5 |
| 20260830230204 | 72 | 228 | 5.0 | 9.0 | 0.00 | 0.00 | 0.00 | 66 | 1013.5 |
| 20260830225705 | 71 | 273 | 5.0 | 9.0 | 0.00 | 0.00 | 0.00 | 66 | 1013.5 |
| 20260830225205 | 72 | 212 | 5.0 | 10.0 | 0.00 | 0.00 | 0.00 | 66 | 1013.5 |
| 20260830224705 | 72 | 203 | 5.0 | 10.0 | 0.00 | 0.00 | 0.00 | 66 | 1013.5 |
| 20260830224205 | 72 | 200 | 5.0 | 10.0 | 0.00 | 0.00 | 0.00 | 66 | 1013.5 |
| 20260830223704 | 72 | 192 | 5.0 | 10.0 | 0.00 | 0.00 | 0.00 | 66 | 1013.6 |
| 20260830223204 | 72 | 213 | 5.0 | 10.0 | 0.00 | 0.00 | 0.00 | 65 | 1013.6 |
| 20260830222704 | 72 | 234 | 5.0 | 10.0 | 0.00 | 0.00 | 0.00 | 65 | 1013.6 |
| 20260830221704 | 72 | 214 | 5.0 | 10.0 | 0.00 | 0.00 | 0.00 | 64 | 1013.6 |
| 20260830220704 | 72 | 214 | 5.0 | 9.0 | 0.00 | 0.00 | 0.00 | 63 | 1013.8 |
| 20260830220204 | 72 | 214 | 5.0 | 11.0 | 0.00 | 0.00 | 0.00 | 63 | 1013.9 |
| 20260830215704 | 72 | 205 | 6.0 | 11.0 | 0.00 | 0.00 | 0.00 | 64 | 1013.9 |
| 20260830215204 | 72 | 155 | 6.0 | 10.0 | 0.00 | 0.00 | 0.00 | 63 | 1014.0 |
| 20260830214204 | 72 | 154 | 6.0 | 10.0 | 0.00 | 0.00 | 0.00 | 63 | 1014.0 |
| 20260830212704 | 72 | 205 | 5.0 | 9.0 | 0.00 | 0.00 | 0.00 | 64 | 1014.4 |
| 20260830212204 | 71 | 178 | 5.0 | 8.0 | 0.00 | 0.00 | 0.00 | 65 | 1014.4 |
| 20260830211705 | 71 | 160 | 5.0 | 8.0 | 0.00 | 0.00 | 0.00 | 64 | 1014.5 |
| 20260830211204 | 71 | 213 | 4.0 | 9.0 | 0.00 | 0.00 | 0.00 | 64 | 1014.5 |
| 20260830210204 | 70 | 235 | 5.0 | 10.0 | 0.00 | 0.00 | 0.00 | 66 | 1014.7 |
| 20260830205705 | 70 | 218 | 5.0 | 10.0 | 0.00 | 0.00 | 0.00 | 66 | 1014.7 |
| 20260830204704 | 70 | 178 | 6.0 | 10.0 | 0.00 | 0.00 | 0.00 | 67 | 1014.8 |
| 20260830204205 | 70 | 186 | 5.0 | 10.0 | 0.00 | 0.00 | 0.00 | 67 | 1014.8 |
| 20260830203704 | 70 | 213 | 5.0 | 10.0 | 0.00 | 0.00 | 0.00 | 67 | 1014.8 |
| 20260830203204 | 70 | 221 | 5.0 | 10.0 | 0.00 | 0.00 | 0.00 | 67 | 1014.9 |
| 20260830202204 | 69 | 184 | 5.0 | 10.0 | 0.00 | 0.00 | 0.00 | 68 | 1015.0 |
| 20260830201704 | 69 | 192 | 5.0 | 10.0 | 0.00 | 0.00 | 0.00 | 69 | 1015.1 |
| 20260830201204 | 69 | 168 | 5.0 | 10.0 | 0.00 | 0.00 | 0.00 | 69 | 1015.1 |
| 20260830200704 | 69 | 142 | 5.0 | 10.0 | 0.00 | 0.00 | 0.00 | 69 | 1015.1 |
| 20260830200205 | 69 | 181 | 5.0 | 10.0 | 0.00 | 0.00 | 0.00 | 69 | 1015.2 |
| 20260830195705 | 69 | 209 | 5.0 | 10.0 | 0.00 | 0.00 | 0.00 | 68 | 1015.3 |
| 20260830194204 | 68 | 211 | 4.0 | 8.0 | 0.00 | 0.00 | 0.00 | 70 | 1015.3 |
| 20260830193704 | 68 | 203 | 4.0 | 8.0 | 0.00 | 0.00 | 0.00 | 71 | 1015.3 |
| 20260830193204 | 68 | 199 | 4.0 | 9.0 | 0.00 | 0.00 | 0.00 | 72 | 1015.3 |
| 20260830192704 | 68 | 213 | 3.0 | 11.0 | 0.00 | 0.00 | 0.00 | 72 | 1015.5 |
| 20260830192204 | 67 | 150 | 4.0 | 11.0 | 0.00 | 0.00 | 0.00 | 74 | 1015.5 |
| 20260830191704 | 67 | 239 | 5.0 | 9.0 | 0.00 | 0.00 | 0.00 | 73 | 1015.5 |
| 20260830190704 | 66 | 196 | 4.0 | 9.0 | 0.00 | 0.00 | 0.00 | 74 | 1015.5 |
| 20260830190203 | 66 | 239 | 4.0 | 10.0 | 0.00 | 0.00 | 0.00 | 74 | 1015.6 |
| 20260830185704 | 66 | 190 | 4.0 | 12.0 | 0.00 | 0.00 | 0.00 | 76 | 1015.7 |
| 20260830185204 | 65 | 144 | 5.0 | 12.0 | 0.00 | 0.00 | 0.00 | 79 | 1015.7 |
| 20260830184705 | 64 | 108 | 5.0 | 12.0 | 0.00 | 0.00 | 0.00 | 79 | 1015.8 |
| 20260830184205 | 64 | 199 | 5.0 | 9.0 | 0.00 | 0.00 | 0.00 | 79 | 1015.9 |
| 20260830183705 | 64 | 189 | 5.0 | 9.0 | 0.00 | 0.00 | 0.00 | 79 | 1015.9 |
| 20260830182705 | 64 | 150 | 4.0 | 8.0 | 0.00 | 0.00 | 0.00 | 79 | 1015.9 |
| 20260830182204 | 64 | 119 | 4.0 | 9.0 | 0.00 | 0.00 | 0.00 | 79 | 1015.9 |
| 20260830181705 | 64 | 186 | 4.0 | 9.0 | 0.00 | 0.00 | 0.00 | 79 | 1015.9 |
| 20260830181205 | 64 | 113 | 4.0 | 9.0 | 0.00 | 0.00 | 0.00 | 79 | 1015.9 |
| 20260830180704 | 64 | 181 | 3.0 | 8.0 | 0.00 | 0.00 | 0.00 | 79 | 1015.9 |
| 20260830180204 | 64 | 146 | 4.0 | 8.0 | 0.00 | 0.00 | 0.00 | 79 | 1015.9 |
| 20260830175204 | 64 | 153 | 4.0 | 9.0 | 0.00 | 0.00 | 0.00 | 79 | 1015.9 |